Wind_Speed
9 8 8 8 8 7 7 7 7 7 7 7 8 8 8 8 9 9 9 9 9 10 10 11 11 12 12 13 13 14 14 15 15 15 15 15 15 16 16 16 16 17 17 16 16 16 16 16 15 14 12 11 10 10 12 15 18 20 21 21 19 17 16 14 14 16 17 19 21 21 24 28 30 30
10 9 8 8 7 7 6 6 6 6 6 6 6 7 7 8 8 9 9 9 9 9 9 10 11 11 12 13 14 14 14 15 16 17 17 17 17 17 17 17 18 18 17 17 17 16 16 17 17 16 14 12 10 9 11 14 17 20 21 21 19 16 15 13 13 15 17 19 20 21 22 26 28 29
10 9 9 8 8 7 7 6 6 6 6 6 6 7 8 8 9 9 9 9 9 9 10 11 11 12 13 13 14 14 15 15 17 18 19 19 18 18 17 17 17 17 17 16 16 16 16 17 17 17 15 12 10 8 10 13 16 19 21 21 20 16 14 12 12 14 16 18 19 20 21 24 26 27
10 9 9 8 8 8 8 7 7 7 7 7 8 9 9 9 10 11 11 11 11 12 12 12 13 13 14 14 14 15 15 16 17 18 20 20 19 18 18 17 17 16 16 15 15 15 14 16 18 18 16 13 10 8 9 11 15 18 20 21 20 17 13 11 12 13 15 17 18 19 19 22 24 26
9 9 8 8 8 8 8 8 8 8 8 8 9 10 11 11 12 12 12 13 13 14 14 14 14 15 15 15 15 15 14 15 16 17 19 20 19 17 17 17 17 17 16 14 14 14 13 14 17 17 16 15 12 9 9 10 13 16 18 19 19 17 14 11 11 12 14 15 17 18 18 21 23 25
9 9 8 8 8 8 8 8 8 8 8 9 10 11 11 11 12 13 13 13 14 14 14 14 15 15 15 16 16 15 14 14 15 16 18 19 18 16 15 16 17 17 16 15 14 14 12 13 17 18 16 15 14 11 10 10 12 15 17 18 17 16 15 12 10 11 12 14 17 17 17 19 21 24
9 9 8 8 7 7 8 8 8 9 9 10 10 11 12 12 13 14 14 14 14 15 15 15 15 16 16 16 16 16 15 15 15 16 17 17 17 15 15 16 18 17 16 15 14 14 12 13 17 18 16 14 14 12 11 11 12 14 16 17 16 15 15 14 11 9 10 13 16 17 16 17 20 22
9 9 8 8 7 7 7 7 8 9 9 10 11 12 13 13 13 14 15 15 15 15 16 16 16 15 15 15 16 16 15 15 15 16 16 16 14 14 14 16 18 17 16 15 14 14 13 12 16 18 16 13 12 11 11 11 12 14 15 16 15 14 14 14 12 10 9 11 15 16 15 16 19 22
9 9 8 8 8 8 8 8 8 8 9 10 11 12 13 13 14 15 16 16 16 16 16 17 16 15 15 14 14 15 14 14 14 14 14 14 13 12 13 16 17 16 15 15 14 13 12 12 15 17 16 14 12 11 11 11 12 14 14 15 14 13 13 13 12 10 9 10 14 16 15 16 18 21
10 9 9 9 9 9 9 9 9 9 9 10 11 12 13 14 15 16 17 17 17 17 17 18 17 17 16 16 15 16 16 15 15 14 12 12 13 12 14 16 16 14 13 14 14 14 13 13 16 17 17 15 14 13 13 13 13 14 14 14 14 13 13 12 11 10 9 11 13 15 15 15 17 20
10 10 10 9 9 9 10 11 11 10 11 11 11 12 13 14 15 16 17 17 18 18 18 18 18 18 18 18 17 18 19 18 16 14 12 12 13 14 15 16 15 13 12 12 12 12 13 14 17 18 17 16 16 15 15 14 14 14 14 14 13 13 13 13 11 10 10 11 13 14 15 16 18 21
11 11 11 11 10 10 10 11 12 12 12 12 12 12 13 13 14 15 16 16 17 17 17 17 17 17 18 18 18 18 19 19 17 15 13 13 14 15 16 15 13 11 11 12 12 12 12 14 16 17 17 17 17 16 16 15 15 15 15 14 13 13 14 13 12 11 11 12 14 15 17 18 19 22
13 12 12 11 11 10 10 12 12 12 12 12 12 12 12 13 13 14 14 14 14 14 14 15 15 16 16 16 17 18 18 18 17 15 14 14 15 15 15 13 11 9 10 11 12 13 14 14 15 15 15 16 17 17 17 17 17 17 16 15 14 14 15 14 14 13 13 14 16 17 18 20 21 22
14 13 13 12 11 10 10 11 12 11 11 11 11 11 12 12 13 13 13 13 12 12 12 12 13 14 15 15 15 16 16 17 17 16 16 16 16 15 15 13 11 9 9 10 11 13 14 15 16 16 16 16 16 17 17 17 17 18 18 17 16 16 16 16 15 15 16 17 18 19 20 21 22 21
15 13 13 12 11 11 10 10 10 10 10 10 9 9 9 10 11 11 11 10 10 10 10 10 11 12 13 13 14 14 15 16 17 17 17 18 18 17 15 13 11 10 10 10 11 12 13 13 15 16 17 17 17 18 18 18 18 19 19 18 18 18 18 18 18 17 17 18 19 20 21 22 22 21
14 13 12 12 11 10 10 10 9 9 9 8 7 6 6 7 8 8 8 8 7 7 7 8 8 9 10 12 13 14 14 15 16 16 17 18 18 17 16 15 13 12 11 11 11 11 11 12 13 14 17 19 20 20 20 20 20 20 20 20 20 21 21 20 20 20 20 20 20 21 22 23 24 23
14 13 12 11 10 10 10 9 8 8 8 7 5 4 3 4 5 5 5 5 4 4 5 6 7 8 9 10 12 12 12 13 14 14 15 16 16 16 16 15 14 13 13 13 12 12 11 11 12 13 15 18 20 22 22 23 22 22 22 22 23 23 23 23 23 23 24 24 24 25 26 27 27 28
14 13 12 11 10 10 10 9 8 8 7 6 4 2 2 2 2 2 2 1 1 2 2 3 4 6 7 8 9 10 10 11 12 12 13 14 14 14 15 14 14 13 13 13 13 12 12 12 12 13 15 18 20 22 24 24 24 24 24 25 25 26 26 27 27 28 28 28 29 30 31 32 33 33
14 13 12 11 11 10 10 10 9 9 8 6 4 2 1 0 1 1 1 1 1 1 1 1 2 3 4 6 7 7 8 9 9 10 12 13 12 13 13 13 13 12 12 12 12 12 12 13 13 14 16 18 19 21 23 24 24 25 25 26 27 29 30 30 31 31 32 31 31 32 33 34 35 35
15 14 13 12 12 12 12 11 10 10 9 7 5 3 2 1 2 2 2 2 2 2 2 2 1 1 1 3 4 5 6 7 7 9 10 11 11 12 12 11 11 11 11 11 11 12 13 13 14 15 16 17 18 20 22 23 23 23 24 25 26 28 29 29 30 31 31 32 32 32 32 32 33 33
15 14 13 13 13 14 13 12 12 12 12 9 7 6 4 3 3 3 3 3 3 3 4 4 4 3 2 0 1 2 4 4 5 7 9 10 10 11 11 10 9 9 9 9 9 10 11 12 12 13 15 16 17 18 20 21 21 22 22 23 23 24 25 25 26 26 27 27 28 28 28 28 29 29
16 15 15 14 15 15 14 13 14 14 14 12 9 8 7 5 4 5 4 3 3 4 4 5 5 6 5 4 2 2 2 3 4 5 7 8 9 9 10 10 9 8 7 6 6 7 7 9 10 11 12 13 15 16 17 18 18 19 19 19 19 20 20 20 21 21 21 22 22 22 22 22 23 23
17 17 16 16 15 14 13 13 15 15 16 15 12 10 9 8 7 7 6 5 5 5 5 5 6 7 7 7 6 5 3 2 2 3 5 6 7 7 8 9 10 9 8 6 3 3 3 4 5 7 8 9 10 12 13 14 14 15 15 15 15 15 16 16 16 17 17 17 18 18 19 19 19 20
19 18 17 16 14 13 12 13 15 17 18 18 14 11 10 9 10 10 8 7 6 6 6 7 7 7 8 8 8 8 6 5 4 3 3 4 4 5 6 7 8 9 9 8 7 5 3 1 0 2 3 3 4 5 7 8 9 10 10 10 10 10 11 12 13 13 14 14 15 15 16 17 17 18
20 19 17 15 14 13 13 14 16 17 19 18 16 12 9 9 12 14 12 8 8 8 8 8 8 8 9 9 10 10 10 9 8 6 6 6 6 5 5 6 7 8 9 9 9 8 8 7 6 5 3 3 3 2 1 1 3 4 4 5 5 5 6 7 8 10 11 12 12 13 14 15 16 17
21 20 17 15 14 14 15 16 17 18 19 19 16 11 7 8 12 16 15 12 10 10 10 10 9 9 10 10 11 12 12 12 12 11 10 10 9 9 9 8 8 8 9 9 10 10 10 10 11 11 10 9 8 8 8 7 5 4 3 2 2 2 3 4 5 7 9 10 11 12 13 14 15 16
23 21 18 17 17 17 18 17 17 18 18 17 15 10 8 8 11 15 16 15 13 13 12 11 11 11 11 12 13 14 14 14 14 14 14 14 14 14 14 14 12 11 11 11 12 11 11 12 12 14 14 14 14 13 13 13 12 11 10 10 9 8 7 8 8 8 9 10 11 12 13 15 16 17
25 22 21 20 21 22 20 19 20 21 19 17 15 12 10 10 11 14 15 16 16 16 14 13 13 13 13 14 15 15 16 16 16 17 17 18 18 18 18 18 18 17 16 16 17 16 15 14 14 15 15 16 17 17 18 18 18 17 16 16 16 15 14 14 13 13 13 12 13 14 14 15 17 18
27 25 24 24 24 24 22 21 23 25 23 20 17 15 14 13 13 14 15 16 17 17 16 15 15 15 15 16 16 17 17 17 17 18 19 20 20 20 20 20 20 19 19 19 20 20 20 19 18 17 17 18 18 18 19 20 21 22 22 21 21 21 20 20 19 18 18 18 17 17 17 17 18 19
28 28 27 26 26 25 24 23 24 26 26 24 21 19 18 17 16 16 16 17 17 17 16 16 17 16 16 17 17 18 18 18 18 18 19 20 21 21 22 22 22 21 20 20 19 20 21 22 22 22 22 21 21 20 20 20 21 22 24 26 26 26 26 26 24 24 24 24 23 22 21 20 21 22
30 29 28 28 28 28 26 25 26 28 29 26 24 23 21 19 18 17 17 18 18 17 16 16 17 17 17 18 18 18 19 19 19 19 19 20 21 22 23 24 24 23 22 22 20 19 20 21 23 24 25 25 24 24 23 22 22 22 24 27 29 29 29 30 29 29 29 30 29 28 26 25 25 26
33 32 31 30 29 29 28 28 28 29 29 28 28 27 23 20 17 16 17 18 18 18 17 17 17 17 17 17 17 18 19 19 19 20 20 21 22 23 24 25 25 24 23 23 23 23 23 22 23 24 25 26 26 26 26 24 23 23 24 27 29 30 31 31 31 30 30 31 33 34 33 32 31 32
37 35 35 35 32 31 31 31 31 31 30 31 32 30 25 21 18 15 15 16 17 18 19 19 19 18 18 17 17 17 18 19 20 20 21 22 23 24 25 25 24 24 23 23 23 24 26 25 25 24 24 24 24 26 27 26 25 25 26 28 29 30 30 31 32 31 29 29 32 36 37 38 39 39
43 40 38 38 37 35 34 33 33 32 31 32 33 31 27 23 19 16 14 14 14 17 19 21 21 20 20 19 17 17 17 18 19 20 21 22 23 24 25 25 25 25 24 23 22 23 24 24 23 23 23 23 22 23 24 26 27 28 29 29 29 30 31 32 32 32 31 28 29 33 36 38 40 41
48 45 43 41 41 39 38 37 36 34 34 34 34 33 31 28 25 22 19 16 14 15 18 21 22 23 23 22 20 19 18 19 20 21 22 23 24 25 25 25 25 26 26 25 23 22 22 22 22 22 22 23 23 23 23 23 26 29 31 32 32 32 32 33 34 35 34 31 31 33 35 37 39 40
49 48 47 46 44 42 40 40 40 40 39 37 36 35 34 33 32 30 27 23 19 17 18 21 24 26 27 27 25 23 23 24 25 25 26 27 28 28 28 26 26 27 27 26 23 20 19 21 22 22 22 23 25 25 24 23 25 28 30 33 35 35 34 34 35 37 37 36 36 37 37 38 40 41
51 50 50 50 49 46 44 44 44 45 44 42 39 37 36 34 31 29 28 27 24 21 18 19 24 29 31 31 29 28 28 30 30 29 29 30 30 30 28 27 27 27 26 24 22 21 21 22 23 23 23 24 26 27 26 27 29 31 31 33 36 37 38 37 37 38 39 39 40 40 41 41 42 44
53 52 52 52 50 49 47 47 46 46 47 45 41 38 35 32 27 23 22 22 22 20 17 17 22 29 33 34 31 30 30 32 32 31 30 31 32 31 29 28 28 28 27 26 25 23 23 24 26 27 27 27 28 30 31 33 36 37 34 32 32 34 37 39 39 39 39 39 39 40 42 42 43 45
57 55 53 52 51 50 49 49 48 47 47 47 43 38 33 29 25 21 19 18 20 20 17 17 22 30 35 35 31 29 30 31 32 32 32 31 32 33 33 32 31 31 31 32 32 30 28 28 29 32 33 32 33 34 34 35 38 40 38 33 30 31 34 38 41 41 41 40 40 40 39 40 42 45
61 59 56 54 53 51 51 51 51 48 47 47 45 39 34 29 25 22 20 21 23 23 22 22 26 33 38 37 32 28 29 31 32 33 34 35 36 38 38 37 37 35 34 36 38 38 37 36 35 35 36 36 36 36 35 34 35 39 41 39 35 34 35 38 40 42 43 44 44 42 40 42 45 46
65 63 60 58 56 54 53 54 54 51 48 48 48 43 35 30 27 25 24 24 24 24 26 28 32 38 42 40 34 30 31 33 35 36 37 38 40 41 41 41 42 41 39 39 40 41 41 40 37 34 35 35 34 35 37 37 36 36 39 42 42 40 39 39 41 42 44 45 45 44 43 43 45 45
68 66 65 63 60 57 56 56 56 54 52 52 54 49 42 38 35 32 30 27 24 23 27 32 38 44 45 41 35 33 34 36 37 37 37 39 41 43 45 45 45 45 45 45 45 44 42 41 37 34 35 35 34 35 38 39 37 36 38 41 44 44 43 42 43 44 45 45 45 44 44 44 45 46
71 70 69 67 64 61 59 58 58 58 56 56 59 58 50 45 42 40 37 33 30 29 30 35 41 45 45 43 42 43 46 46 43 38 36 35 35 38 41 41 41 43 45 46 47 47 45 42 39 37 37 38 37 38 40 40 39 38 38 40 43 46 47 45 44 44 45 46 46 45 44 45 47 50
73 72 72 71 68 66 63 61 60 60 59 60 64 65 57 48 46 47 46 44 42 40 38 39 44 50 52 54 57 59 58 54 48 42 38 36 36 37 39 39 39 42 45 46 46 47 46 44 43 42 41 42 42 43 44 44 42 42 41 41 42 45 47 48 46 45 45 47 49 49 47 47 49 53
73 73 74 73 72 69 68 65 63 62 62 63 66 68 61 52 48 50 51 50 50 48 47 47 50 55 59 61 63 62 58 53 48 43 39 38 40 43 43 42 43 48 51 51 49 48 48 49 48 47 45 46 47 47 47 47 48 49 48 46 45 47 47 48 48 48 48 50 52 54 53 52 53 53
Wind_Direction
46 50 54 56 61 61 58 56 56 53 49 43 39 35 31 28 24 22 23 22 20 18 14 16 18 16 15 17 18 19 19 17 16 19 22 22 20 18 18 19 18 17 17 17 18 18 20 21 20 18 16 17 20 18 16 15 16 18 23 27 27 26 29 34 41 41 34 29 28 29 28 26 25 21
38 38 38 40 43 45 44 42 41 41 38 37 35 31 25 20 14 11 12 11 10 9 5 6 11 10 10 13 14 15 16 15 14 17 20 20 19 17 16 17 16 16 16 16 18 21 24 27 26 23 21 20 20 20 18 19 21 23 26 29 29 28 27 31 38 38 32 27 27 28 27 26 26 23
31 31 30 31 30 30 29 25 25 25 21 20 22 21 16 11 7 5 4 1 358 360 0 1 3 4 6 9 10 11 14 16 16 17 17 16 17 16 16 17 16 15 15 16 18 21 27 30 29 25 23 22 22 21 20 21 23 26 28 30 31 29 26 28 33 33 30 26 26 29 28 26 26 24
23 22 21 22 22 20 16 12 12 11 9 9 12 13 8 4 1 358 357 355 353 355 358 358 358 360 1 4 7 9 14 18 18 15 13 14 16 17 16 18 18 17 16 17 19 23 28 31 27 23 22 22 23 21 19 20 22 23 24 27 30 30 26 25 28 31 31 28 27 30 29 27 27 26
18 15 13 13 12 11 8 5 4 3 3 3 4 4 2 359 357 354 352 351 350 353 355 355 356 357 359 1 5 9 15 18 15 12 11 11 14 18 18 17 18 19 18 17 19 22 28 31 25 20 20 21 21 20 15 15 17 18 19 22 27 29 27 24 26 33 35 30 28 31 30 28 29 27
10 8 6 4 1 360 357 354 354 354 354 355 355 355 354 354 355 355 355 353 352 354 355 355 356 358 0 360 1 6 12 13 11 10 10 9 12 17 21 21 19 18 17 16 19 22 25 28 23 19 20 20 20 18 13 11 13 12 13 17 23 27 27 24 25 34 39 31 26 30 31 29 30 29
1 359 357 355 351 349 346 343 342 342 343 345 347 347 348 350 352 354 356 355 354 355 356 356 356 357 358 357 358 1 4 4 7 9 9 8 9 11 18 22 19 16 16 16 18 23 26 26 20 18 20 21 19 18 14 11 10 8 8 13 19 25 27 26 27 35 42 32 24 27 31 31 30 28
349 347 345 341 338 334 333 331 330 331 334 336 338 340 344 347 348 348 350 351 352 353 353 354 354 354 355 356 356 358 358 359 3 7 8 5 3 5 11 15 14 13 16 17 19 23 26 24 18 16 19 21 20 18 13 9 6 6 8 13 19 24 25 26 29 38 46 33 22 24 30 32 28 26
334 333 331 328 325 321 320 320 321 321 323 327 330 333 338 341 341 340 342 345 347 347 346 347 349 351 352 352 353 354 355 355 356 1 5 3 359 1 4 6 9 12 15 18 21 25 26 22 15 15 18 21 22 20 14 8 6 8 13 18 23 24 23 25 30 38 43 32 22 24 31 32 28 25
319 318 316 315 313 312 310 309 309 311 313 316 320 324 329 331 332 332 334 337 339 339 339 340 343 345 345 345 346 348 348 348 349 354 359 359 358 358 360 2 7 14 18 20 21 22 23 19 14 17 21 23 23 23 21 17 14 17 22 26 28 26 25 28 32 34 34 28 24 26 31 32 28 25
306 304 302 303 304 303 302 302 302 304 306 308 312 317 320 323 324 325 327 328 330 332 333 335 337 338 338 338 338 340 341 343 346 350 353 354 355 356 358 3 7 13 22 30 30 25 20 17 15 19 25 28 30 29 28 27 26 27 30 31 31 30 30 32 33 30 28 29 30 31 33 33 30 27
295 293 292 293 295 296 296 298 300 303 305 307 309 313 317 319 320 322 323 325 328 329 330 332 333 335 336 337 338 339 342 345 349 354 355 355 355 355 360 7 12 14 19 28 33 32 28 23 21 22 25 31 35 35 33 33 34 34 36 35 33 32 32 32 32 29 28 32 34 33 33 33 33 32
285 284 285 287 290 291 292 294 299 303 306 309 312 316 320 322 323 324 325 329 332 333 334 335 335 337 339 342 343 344 348 354 359 1 1 1 2 4 9 17 24 22 21 26 30 30 31 31 32 35 36 35 35 37 36 35 36 36 36 35 33 31 31 30 30 30 31 33 33 33 34 37 39 41
279 279 281 285 289 291 291 294 298 303 308 311 315 320 325 326 327 329 332 335 337 338 340 342 343 345 348 350 352 355 358 3 7 8 7 9 13 18 23 29 33 31 30 34 33 29 29 30 31 38 46 45 40 38 37 37 36 35 34 33 31 28 28 28 29 30 31 31 32 35 40 46 51 55
275 277 280 283 286 290 292 294 298 304 307 311 317 324 327 329 331 335 339 341 341 344 348 352 354 356 359 3 7 10 10 12 13 12 13 16 21 27 32 36 36 32 30 33 36 34 32 30 28 29 36 43 44 41 40 38 36 34 32 30 28 27 27 27 28 28 29 30 36 45 55 64 69 72
272 274 276 279 282 285 286 289 293 298 302 307 319 327 330 332 336 341 344 345 346 352 358 2 9 14 15 17 19 22 23 21 18 16 18 21 24 29 34 36 36 33 30 32 36 37 36 36 35 31 31 37 41 42 41 40 38 36 33 30 28 28 29 29 30 33 35 41 50 62 72 80 84 84
270 270 272 274 276 277 279 281 284 286 290 298 313 328 335 344 349 350 353 353 355 6 11 14 23 30 30 27 26 30 32 28 23 24 27 27 27 31 33 34 35 34 34 35 37 40 41 42 44 44 43 44 46 48 48 47 47 45 42 41 40 41 43 45 49 55 60 66 74 81 87 90 91 91
268 268 268 269 269 270 271 272 273 273 277 284 293 310 332 3 22 24 20 14 15 29 32 35 38 40 37 33 32 36 37 31 26 30 35 34 33 34 34 35 39 41 42 42 43 45 48 50 52 56 60 59 59 60 61 61 61 61 61 61 62 64 67 70 73 78 82 86 90 93 94 94 94 94
266 265 264 262 263 262 262 263 264 265 270 275 270 263 277 11 97 110 129 156 155 150 109 78 60 46 41 37 36 39 41 35 31 35 40 39 37 37 39 41 46 50 51 51 54 58 61 64 66 70 73 72 71 73 74 74 75 77 78 79 80 81 82 84 86 87 89 92 94 94 94 93 93 93
262 259 258 257 256 254 254 255 258 262 266 268 263 253 240 210 174 167 179 179 173 178 186 185 182 129 64 44 34 36 43 41 39 43 46 44 40 39 41 45 52 58 61 63 68 72 74 75 77 80 83 84 84 85 86 86 87 87 88 89 89 89 89 90 89 89 89 89 90 89 87 85 83 83
253 252 252 252 251 250 250 251 255 260 266 266 263 256 247 229 214 211 205 192 186 195 203 206 212 217 218 211 15 24 40 47 46 47 48 47 45 41 37 38 43 52 60 67 75 80 83 85 85 87 90 93 93 94 94 94 94 94 93 92 91 90 90 89 88 87 86 85 85 84 81 78 74 71
241 242 243 244 246 248 250 251 254 259 265 267 265 260 255 247 238 238 231 215 207 213 220 224 228 234 239 240 251 296 355 33 41 40 40 41 44 40 34 29 26 25 33 51 68 75 81 89 94 95 97 99 101 101 100 101 100 99 97 94 90 87 86 85 84 83 81 79 78 77 75 73 68 63
238 238 238 240 244 247 250 253 257 261 266 270 269 266 264 264 260 251 239 226 229 234 238 242 242 243 247 249 248 257 276 307 346 9 17 23 31 33 29 27 23 16 8 358 1 34 66 86 99 104 103 102 104 105 106 105 105 103 102 99 94 88 83 78 76 74 72 70 68 66 64 62 59 54
243 244 244 244 246 250 253 256 259 263 267 272 274 273 270 270 268 260 245 228 231 239 246 253 256 254 254 254 252 254 258 267 279 295 316 331 351 5 8 12 15 15 8 350 328 313 305 306 149 136 126 110 96 97 103 107 109 108 105 102 98 92 81 72 64 59 58 57 54 52 50 47 45 43
242 247 251 252 252 253 256 259 263 266 270 275 279 278 272 266 265 264 259 246 238 239 245 252 261 266 267 265 263 259 258 260 266 276 284 291 299 308 318 330 342 353 360 357 341 321 304 292 285 281 272 270 286 303 337 77 104 108 106 100 95 89 74 60 50 42 39 39 38 36 34 32 31 31
236 240 247 252 252 252 253 258 263 268 272 278 281 279 271 261 260 265 269 266 258 251 249 250 256 264 271 276 275 273 269 266 265 267 274 281 288 293 297 302 311 321 330 338 341 337 323 306 293 285 282 280 280 284 289 292 296 302 308 320 345 4 7 9 12 11 11 13 14 14 13 12 12 14
233 233 235 239 243 245 247 251 259 266 272 277 280 280 275 265 260 267 274 277 274 268 262 258 256 258 264 270 275 278 280 278 275 273 271 272 276 283 289 294 300 307 311 312 315 320 323 319 308 296 288 283 281 281 283 286 291 295 298 300 305 310 315 322 328 333 338 343 346 349 352 353 354 355
232 230 229 231 235 239 241 246 254 261 266 272 275 275 274 267 262 266 273 279 281 279 276 271 265 263 264 267 271 276 279 282 283 283 281 279 279 280 283 285 290 296 301 303 302 302 303 306 307 305 301 294 288 284 282 283 286 289 292 294 298 302 305 308 311 313 316 320 323 327 330 333 337 339
231 231 231 233 236 237 239 243 251 258 263 267 268 268 267 267 266 268 272 276 279 280 280 279 276 272 271 271 274 277 279 282 286 288 288 289 289 290 293 292 291 292 293 295 297 298 298 298 297 299 301 301 299 294 290 286 286 286 288 288 290 293 296 298 301 302 304 307 310 313 316 319 322 326
231 232 234 236 237 238 239 243 249 257 263 266 267 268 268 268 268 270 274 276 277 278 280 281 281 279 277 276 276 278 280 284 288 290 292 293 294 296 298 300 300 300 297 293 292 291 292 294 295 295 295 295 297 297 295 293 291 289 287 287 287 288 289 291 293 295 297 300 303 306 308 310 312 314
232 234 236 237 237 239 241 242 246 253 259 265 269 270 269 268 268 272 276 278 278 279 280 281 281 280 278 277 278 279 282 284 287 289 292 295 298 299 299 299 301 303 303 303 302 298 294 292 294 296 296 295 294 294 293 293 293 292 290 289 290 291 291 289 289 289 291 294 297 299 300 301 303 305
231 235 237 239 239 242 244 244 246 252 259 265 268 268 267 266 266 271 278 281 282 281 281 281 282 280 278 277 278 281 283 285 287 289 290 293 295 297 297 298 300 302 305 308 311 312 312 310 308 307 306 305 304 302 301 299 296 295 293 291 292 295 297 296 293 291 289 287 288 290 292 293 295 298
234 235 238 241 243 245 247 247 247 250 257 262 264 264 263 261 257 259 268 278 285 286 284 282 282 282 281 281 280 280 282 284 286 288 290 291 293 293 294 295 296 299 303 306 309 312 315 317 319 319 318 317 313 310 309 309 307 303 299 297 298 301 302 301 300 298 294 287 283 284 286 288 289 292
238 237 238 243 245 246 248 249 249 250 253 256 259 259 258 256 254 253 255 263 277 285 285 283 283 284 285 286 282 279 280 282 285 287 289 291 292 292 293 294 295 297 300 303 306 310 313 316 319 320 320 320 316 309 306 308 310 309 307 307 308 308 307 305 303 301 300 296 290 287 286 287 287 289
239 239 240 242 244 245 247 249 251 251 251 253 256 258 258 259 261 261 260 261 270 281 285 286 286 286 286 286 286 283 282 283 285 286 288 289 289 289 289 290 292 294 296 297 300 305 310 315 320 323 323 321 315 307 304 306 308 309 310 310 309 308 308 307 305 302 301 301 298 294 292 290 290 290
238 241 242 242 244 244 245 247 249 251 253 254 257 259 261 264 266 264 262 262 264 270 280 288 293 293 291 289 287 285 285 288 289 289 289 290 289 288 286 285 285 285 287 290 292 297 305 313 319 325 329 327 320 314 313 313 312 312 312 310 308 307 306 304 303 301 301 301 300 299 298 296 295 295
237 240 242 245 246 246 246 246 248 250 253 256 258 259 261 263 262 260 257 256 255 255 263 277 290 296 296 294 291 288 288 290 292 292 292 292 292 292 290 285 279 277 279 284 288 292 299 308 314 317 319 321 321 319 317 315 313 312 312 310 309 308 306 304 303 302 302 302 302 302 302 301 299 299
238 239 242 246 247 246 246 246 246 247 251 254 255 256 255 253 253 254 254 256 257 257 260 273 288 294 295 295 294 292 291 292 292 291 291 292 294 297 299 293 283 277 277 282 288 292 295 302 310 311 309 309 312 314 314 313 311 310 311 311 310 310 309 308 306 306 305 305 305 305 305 304 303 302
239 240 243 245 246 245 247 246 244 245 250 250 248 247 245 243 249 258 264 271 277 276 276 287 293 291 290 291 292 293 293 293 293 292 292 292 294 297 300 299 294 288 283 282 284 287 289 295 305 308 305 303 306 310 312 313 312 312 312 312 311 310 309 308 307 307 307 307 307 306 305 305 306 305
238 240 243 244 244 245 247 246 243 245 248 246 240 238 240 244 254 266 275 284 291 294 297 301 295 287 284 286 289 292 294 294 295 294 295 296 296 296 297 297 296 295 291 287 285 284 285 291 298 300 299 301 303 303 303 308 313 315 314 314 313 311 308 305 305 305 306 306 307 307 306 308 312 311
239 241 242 242 242 244 246 244 242 243 246 242 236 234 241 252 262 271 276 282 289 298 301 296 285 277 277 280 286 292 294 294 294 293 294 295 295 294 295 295 294 294 293 291 289 287 288 290 291 292 295 298 297 292 292 299 309 314 314 313 314 314 311 308 307 306 305 305 306 307 309 313 317 318
240 241 242 242 241 242 242 241 240 242 243 240 235 234 242 253 261 266 273 279 284 288 285 275 268 268 272 278 285 289 286 283 282 283 285 289 291 292 292 293 295 295 294 292 291 290 290 290 289 289 292 294 291 288 290 295 303 309 311 310 311 312 312 311 308 306 305 306 306 306 307 310 314 317
240 240 241 242 242 242 241 239 239 240 242 240 235 234 241 251 256 257 261 265 263 259 255 251 252 258 263 266 266 265 262 260 258 258 260 263 267 273 278 282 288 293 292 290 289 289 289 289 289 289 290 290 290 291 293 295 299 302 305 307 309 310 311 310 308 306 305 306 306 306 305 306 308 310
240 240 240 241 242 242 241 239 238 239 240 239 237 236 240 248 251 249 248 248 246 239 232 231 237 242 245 247 249 250 252 254 254 253 254 254 254 259 265 270 276 280 279 278 280 283 285 286 286 286 287 289 291 294 295 295 296 298 300 304 306 306 307 308 306 305 304 303 303 304 304 304 305 306
240 240 239 239 240 241 241 239 238 237 237 238 238 237 238 242 247 246 243 243 242 237 229 226 232 238 241 244 246 249 252 255 255 255 257 260 260 259 261 265 270 272 272 272 274 276 278 281 283 284 285 289 293 295 295 295 296 297 299 300 300 301 303 305 304 305 306 304 303 304 304 304 305 306
Height
11020 11020 11020 11019 11019 11019 11019 11018 11018 11018 11017 11017 11017 11016 11016 11015 11015 11014 11013 11013 11012 11012 11011 11010 11009 11009 11008 11007 11006 11006 11005 11004 11003 11002 11001 11000 10998 10997 10996 10994 10993 10992 10990 10989 10988 10986 10985 10984 10983 10981 10980 10979 10977 10976 10975 10974 10973 10971 10970 10968 10966 10965 10964 10963 10962 10962 10960 10958 10956 10955 10953 10950 10948 10946
11021 11021 11021 11020 11020 11020 11019 11019 11019 11018 11018 11018 11017 11017 11016 11016 11015 11015 11015 11014 11013 11013 11012 11011 11010 11010 11009 11008 11007 11006 11005 11004 11003 11002 11001 11000 10999 10998 10996 10995 10993 10992 10991 10989 10988 10987 10985 10984 10983 10981 10980 10978 10977 10976 10975 10974 10973 10972 10970 10969 10967 10966 10965 10964 10963 10962 10961 10959 10957 10955 10953 10951 10949 10947
11022 11021 11021 11021 11021 11020 11020 11020 11019 11019 11019 11018 11018 11017 11017 11017 11016 11016 11015 11015 11014 11013 11013 11012 11011 11010 11009 11008 11008 11007 11006 11005 11004 11002 11001 11000 10999 10998 10997 10995 10994 10993 10991 10990 10988 10987 10986 10984 10983 10981 10980 10978 10977 10976 10975 10975 10973 10972 10971 10969 10968 10966 10965 10964 10964 10963 10962 10960 10958 10956 10954 10952 10950 10948
11022 11022 11021 11021 11021 11020 11020 11020 11019 11019 11019 11019 11018 11018 11017 11017 11017 11016 11016 11015 11015 11014 11013 11013 11012 11011 11010 11009 11008 11007 11006 11005 11004 11003 11002 11001 11000 10999 10997 10996 10995 10993 10992 10990 10989 10987 10986 10985 10983 10982 10980 10979 10977 10976 10975 10975 10974 10972 10971 10970 10968 10967 10965 10965 10964 10963 10963 10961 10959 10957 10955 10953 10951 10949
11022 11022 11021 11021 11020 11020 11020 11019 11019 11019 11019 11019 11018 11018 11018 11017 11017 11017 11016 11016 11015 11014 11014 11013 11012 11011 11011 11010 11009 11008 11007 11006 11005 11004 11003 11002 11000 10999 10998 10996 10995 10993 10992 10991 10989 10988 10986 10985 10984 10982 10981 10979 10977 10976 10975 10975 10974 10973 10971 10970 10968 10967 10966 10965 10964 10964 10963 10961 10959 10957 10955 10954 10952 10950
11023 11022 11021 11021 11020 11020 11019 11019 11019 11018 11018 11018 11018 11018 11018 11017 11017 11017 11016 11016 11015 11014 11014 11013 11012 11011 11011 11010 11009 11008 11007 11006 11006 11004 11003 11002 11001 11000 10998 10997 10996 10994 10993 10991 10990 10988 10987 10986 10984 10983 10981 10979 10978 10977 10976 10975 10974 10973 10972 10970 10969 10967 10966 10965 10964 10964 10963 10962 10960 10958 10956 10954 10953 10951
11023 11022 11021 11020 11020 11019 11019 11018 11018 11017 11017 11017 11017 11017 11017 11017 11017 11016 11016 11016 11015 11015 11014 11013 11012 11012 11011 11010 11009 11008 11008 11007 11006 11005 11004 11003 11001 11000 10999 10998 10996 10995 10993 10992 10990 10989 10987 10986 10985 10983 10981 10980 10979 10977 10976 10975 10974 10973 10972 10970 10969 10967 10966 10965 10964 10964 10963 10962 10960 10958 10956 10955 10953 10952
11022 11021 11021 11020 11019 11019 11018 11018 11017 11017 11016 11016 11016 11016 11016 11016 11016 11015 11015 11015 11015 11014 11014 11013 11013 11012 11011 11011 11010 11009 11008 11007 11006 11006 11004 11003 11002 11000 10999 10998 10996 10995 10993 10992 10991 10989 10988 10987 10985 10984 10982 10981 10979 10978 10977 10976 10974 10973 10972 10970 10969 10967 10966 10965 10964 10964 10963 10962 10961 10959 10957 10955 10954 10952
11021 11021 11020 11019 11019 11018 11017 11017 11016 11016 11015 11015 11015 11015 11015 11014 11014 11014 11014 11014 11014 11013 11013 11012 11012 11012 11011 11011 11010 11009 11008 11008 11007 11006 11005 11004 11002 11001 11000 10998 10997 10995 10994 10992 10991 10990 10989 10988 10986 10984 10983 10981 10980 10978 10977 10976 10974 10973 10972 10970 10969 10967 10966 10965 10964 10964 10963 10962 10961 10959 10957 10956 10954 10953
11021 11020 11019 11018 11018 11017 11017 11016 11016 11015 11015 11014 11014 11014 11013 11013 11013 11013 11012 11012 11012 11012 11011 11011 11011 11011 11011 11010 11010 11009 11008 11007 11007 11006 11005 11004 11002 11001 11000 10998 10997 10995 10994 10993 10991 10990 10989 10988 10987 10985 10983 10982 10980 10979 10977 10976 10975 10973 10972 10970 10969 10968 10967 10965 10965 10964 10963 10962 10961 10960 10958 10956 10955 10954
11019 11019 11018 11017 11017 11016 11016 11015 11015 11014 11014 11014 11013 11012 11012 11012 11011 11011 11011 11010 11010 11010 11010 11010 11010 11010 11009 11009 11009 11008 11007 11006 11006 11005 11004 11003 11002 11001 11000 10998 10997 10995 10994 10993 10992 10991 10990 10988 10987 10985 10984 10982 10981 10979 10978 10977 10975 10974 10972 10971 10969 10968 10967 10966 10965 10964 10964 10963 10962 10960 10958 10957 10956 10955
11018 11017 11016 11016 11016 11015 11015 11014 11014 11013 11013 11013 11012 11012 11011 11011 11010 11010 11009 11009 11009 11009 11008 11008 11008 11008 11008 11008 11007 11007 11006 11005 11005 11004 11004 11003 11002 11000 10999 10998 10997 10996 10994 10993 10992 10991 10990 10989 10988 10986 10984 10983 10981 10980 10979 10977 10976 10975 10973 10972 10970 10969 10968 10967 10966 10965 10964 10963 10962 10961 10959 10958 10957 10956
11017 11016 11015 11015 11014 11014 11014 11013 11012 11012 11012 11012 11011 11011 11010 11010 11009 11009 11008 11008 11008 11007 11007 11007 11007 11007 11007 11006 11006 11005 11005 11004 11004 11004 11003 11002 11001 11000 10999 10998 10997 10996 10995 10993 10992 10991 10990 10989 10988 10987 10985 10984 10982 10981 10980 10978 10977 10976 10974 10973 10971 10970 10969 10968 10967 10966 10965 10964 10962 10961 10960 10959 10958 10957
11015 11014 11014 11013 11013 11013 11012 11012 11011 11011 11010 11010 11010 11009 11009 11009 11008 11008 11007 11007 11006 11006 11006 11006 11006 11006 11006 11006 11005 11005 11004 11004 11004 11003 11003 11002 11001 11000 10999 10998 10997 10996 10995 10994 10993 10992 10990 10989 10988 10987 10986 10985 10983 10982 10981 10980 10978 10977 10975 10974 10972 10971 10970 10969 10967 10966 10965 10964 10963 10962 10961 10960 10959 10958
11013 11013 11012 11012 11012 11011 11011 11011 11010 11010 11009 11009 11008 11008 11008 11007 11007 11006 11006 11006 11005 11005 11005 11005 11005 11005 11005 11005 11005 11005 11005 11004 11004 11003 11002 11002 11001 11000 11000 10999 10998 10997 10995 10994 10993 10992 10991 10990 10988 10987 10986 10985 10984 10983 10982 10981 10980 10978 10977 10975 10974 10972 10971 10969 10968 10967 10966 10965 10964 10963 10962 10961 10960 10960
11012 11012 11011 11011 11011 11010 11010 11010 11009 11009 11008 11008 11007 11007 11007 11006 11006 11005 11005 11004 11004 11004 11004 11004 11004 11004 11004 11004 11005 11005 11005 11004 11004 11003 11003 11002 11002 11001 11000 10999 10998 10997 10996 10995 10994 10993 10992 10991 10989 10988 10987 10985 10984 10984 10983 10982 10981 10980 10978 10976 10974 10973 10971 10970 10969 10968 10967 10966 10965 10965 10964 10963 10962 10961
11010 11011 11011 11010 11010 11010 11009 11009 11009 11008 11008 11007 11006 11006 11005 11005 11005 11004 11004 11003 11003 11003 11003 11003 11003 11004 11004 11004 11004 11005 11005 11005 11004 11004 11004 11003 11003 11002 11001 11000 10999 10998 10997 10996 10995 10994 10993 10992 10991 10990 10988 10987 10986 10985 10984 10983 10982 10980 10979 10977 10976 10974 10973 10972 10971 10970 10969 10968 10968 10967 10966 10965 10964 10963
11009 11009 11009 11010 11009 11009 11009 11008 11008 11007 11007 11006 11006 11005 11005 11004 11004 11003 11003 11003 11002 11002 11003 11003 11003 11003 11003 11004 11004 11004 11005 11005 11004 11004 11004 11004 11004 11003 11002 11001 11000 11000 10998 10997 10996 10995 10994 10993 10992 10991 10990 10989 10988 10987 10986 10985 10983 10982 10981 10979 10978 10977 10976 10975 10974 10972 10971 10971 10970 10970 10968 10967 10965 10964
11008 11008 11008 11008 11008 11008 11008 11007 11007 11007 11006 11006 11005 11005 11004 11004 11003 11003 11002 11002 11002 11002 11002 11002 11002 11003 11003 11003 11004 11004 11004 11004 11004 11004 11004 11005 11004 11004 11003 11003 11002 11001 11000 10999 10998 10997 10996 10995 10994 10993 10992 10991 10990 10989 10988 10987 10986 10984 10983 10982 10981 10980 10979 10978 10977 10975 10974 10973 10973 10972 10971 10969 10967 10966
11006 11006 11006 11006 11006 11006 11006 11006 11006 11006 11005 11005 11005 11005 11004 11003 11003 11002 11002 11002 11002 11002 11002 11002 11002 11002 11002 11003 11003 11003 11004 11004 11004 11004 11004 11005 11005 11004 11004 11004 11003 11002 11001 11001 11000 10999 10998 10997 10996 10995 10994 10993 10992 10991 10990 10989 10988 10987 10985 10984 10983 10982 10981 10980 10979 10978 10976 10975 10974 10974 10973 10971 10970 10968
11004 11004 11004 11004 11004 11004 11004 11005 11005 11005 11005 11005 11005 11004 11004 11003 11003 11002 11002 11001 11001 11001 11002 11002 11002 11002 11002 11002 11003 11003 11003 11004 11004 11004 11004 11005 11005 11005 11005 11004 11004 11004 11003 11002 11001 11000 10999 10999 10998 10997 10996 10994 10994 10993 10991 10990 10989 10988 10987 10986 10985 10984 10983 10982 10981 10979 10978 10977 10976 10975 10974 10973 10972 10970
11001 11001 11001 11002 11002 11002 11003 11003 11004 11004 11004 11004 11004 11004 11004 11003 11003 11002 11001 11001 11001 11001 11001 11001 11001 11002 11002 11002 11002 11003 11003 11004 11004 11005 11005 11005 11005 11005 11005 11005 11005 11004 11004 11003 11003 11002 11001 11000 10999 10998 10997 10996 10995 10994 10993 10991 10990 10989 10988 10987 10986 10985 10984 10983 10982 10981 10980 10978 10977 10976 10974 10973 10972 10971
10998 10998 10999 10999 10999 11000 11001 11002 11003 11003 11003 11003 11004 11004 11004 11004 11003 11002 11001 11001 11001 11000 11001 11001 11001 11001 11001 11001 11002 11002 11003 11004 11004 11004 11005 11005 11005 11005 11005 11005 11005 11005 11004 11004 11004 11003 11002 11001 11000 10999 10998 10997 10996 10994 10993 10992 10991 10990 10989 10988 10987 10986 10985 10984 10983 10982 10980 10979 10978 10976 10975 10974 10973 10972
10998 10997 10998 10998 10998 10999 11000 11001 11001 11002 11002 11003 11004 11004 11004 11004 11003 11002 11001 11001 11000 11000 11000 11000 11000 11000 11000 11001 11001 11001 11002 11003 11003 11004 11004 11004 11004 11004 11004 11004 11005 11005 11004 11004 11004 11003 11003 11002 11001 11000 10999 10998 10997 10995 10994 10993 10991 10990 10989 10988 10987 10986 10985 10984 10983 10982 10980 10979 10978 10977 10975 10974 10972 10971
10996 10997 10997 10998 10998 10999 10999 10999 11000 11000 11001 11002 11003 11004 11004 11004 11002 11001 11000 11000 11000 10999 10999 10999 10999 10999 10999 11000 11000 11000 11001 11001 11002 11002 11002 11003 11003 11003 11004 11004 11004 11004 11004 11004 11003 11003 11002 11002 11001 11000 10999 10998 10997 10996 10995 10993 10992 10990 10989 10988 10987 10986 10985 10984 10982 10981 10980 10979 10977 10976 10975 10974 10972 10971
10994 10994 10996 10997 10998 10998 10997 10997 10997 10998 10999 11000 11002 11003 11003 11003 11002 11000 10999 10999 10998 10998 10998 10998 10998 10998 10998 10998 10998 10998 10999 10999 11000 11001 11001 11001 11001 11002 11002 11003 11003 11004 11004 11003 11003 11002 11001 11001 11000 10999 10999 10998 10997 10996 10995 10994 10992 10991 10989 10988 10986 10985 10984 10983 10982 10980 10979 10978 10977 10975 10974 10973 10972 10970
10991 10991 10992 10994 10995 10995 10994 10994 10994 10994 10995 10997 10999 11000 11002 11002 11001 11000 10998 10998 10997 10996 10996 10996 10996 10997 10997 10997 10997 10997 10997 10997 10998 10999 10999 11000 11000 11000 11000 11001 11001 11002 11002 11002 11002 11001 11001 11000 10999 10998 10998 10997 10997 10996 10995 10994 10992 10991 10990 10988 10986 10985 10984 10982 10981 10980 10978 10977 10976 10974 10973 10972 10971 10969
10988 10989 10989 10989 10990 10990 10990 10990 10990 10990 10991 10993 10995 10997 10998 10999 10999 10999 10998 10997 10996 10995 10995 10995 10995 10995 10995 10995 10995 10995 10996 10996 10996 10997 10997 10997 10998 10998 10999 10999 10999 11000 11000 11000 11000 11000 10999 10999 10998 10997 10996 10996 10995 10995 10994 10993 10991 10991 10990 10988 10987 10985 10983 10982 10980 10978 10977 10976 10974 10973 10972 10970 10969 10968
10985 10986 10986 10986 10985 10986 10986 10987 10986 10986 10987 10989 10991 10993 10994 10995 10996 10996 10996 10995 10994 10994 10993 10993 10993 10993 10993 10993 10994 10994 10994 10995 10995 10995 10995 10995 10996 10996 10996 10997 10997 10998 10998 10998 10997 10997 10996 10996 10996 10996 10995 10994 10993 10993 10992 10991 10990 10989 10988 10987 10986 10984 10983 10981 10979 10977 10976 10974 10973 10971 10970 10969 10967 10966
10982 10982 10982 10982 10981 10982 10983 10984 10984 10984 10984 10986 10988 10990 10991 10991 10992 10992 10993 10993 10992 10992 10992 10991 10991 10991 10991 10991 10992 10992 10993 10993 10994 10994 10994 10994 10994 10994 10994 10994 10994 10995 10996 10996 10996 10995 10994 10993 10993 10993 10992 10992 10991 10991 10990 10989 10988 10987 10985 10983 10982 10982 10981 10979 10978 10977 10974 10973 10971 10970 10968 10967 10965 10964
10978 10978 10978 10978 10978 10978 10979 10981 10982 10982 10982 10984 10986 10988 10988 10988 10988 10989 10989 10989 10990 10990 10990 10990 10989 10989 10989 10989 10990 10990 10991 10991 10992 10992 10992 10992 10992 10993 10992 10992 10991 10992 10992 10992 10993 10993 10993 10992 10992 10991 10990 10989 10989 10988 10987 10987 10986 10985 10983 10980 10978 10977 10976 10976 10976 10975 10974 10971 10969 10968 10966 10965 10963 10961
10974 10975 10975 10975 10976 10977 10977 10978 10979 10979 10980 10981 10983 10984 10986 10986 10986 10986 10986 10986 10987 10988 10988 10988 10987 10987 10987 10987 10988 10988 10989 10989 10990 10990 10991 10991 10991 10991 10991 10990 10990 10990 10990 10990 10989 10989 10989 10989 10989 10988 10987 10987 10986 10985 10985 10984 10984 10983 10982 10979 10976 10974 10973 10972 10971 10972 10971 10969 10967 10965 10964 10962 10961 10959
10970 10971 10971 10972 10974 10975 10975 10975 10976 10977 10977 10978 10978 10980 10982 10983 10982 10982 10981 10982 10984 10985 10986 10986 10985 10985 10985 10985 10986 10987 10987 10988 10988 10989 10989 10989 10990 10990 10989 10989 10989 10989 10989 10988 10988 10987 10986 10985 10985 10985 10984 10984 10983 10982 10981 10980 10980 10980 10979 10977 10975 10973 10971 10969 10968 10967 10967 10966 10964 10961 10960 10959 10957 10956
10965 10966 10967 10969 10971 10972 10972 10973 10973 10974 10974 10975 10975 10976 10978 10979 10979 10978 10977 10977 10979 10981 10983 10983 10984 10984 10984 10984 10985 10985 10986 10987 10987 10988 10988 10988 10988 10988 10988 10988 10987 10987 10987 10987 10986 10986 10984 10983 10982 10982 10982 10981 10979 10978 10978 10977 10976 10975 10974 10973 10973 10971 10969 10967 10965 10963 10963 10963 10961 10958 10956 10954 10952 10951
10959 10961 10963 10964 10966 10968 10969 10970 10970 10970 10971 10972 10972 10973 10974 10975 10976 10976 10974 10973 10973 10975 10977 10979 10981 10981 10982 10982 10983 10984 10985 10986 10986 10987 10987 10987 10987 10987 10987 10987 10986 10986 10985 10985 10984 10984 10982 10981 10980 10980 10979 10978 10976 10975 10975 10975 10973 10972 10970 10969 10969 10968 10967 10965 10963 10960 10959 10959 10958 10955 10953 10951 10948 10947
10953 10955 10957 10958 10961 10964 10966 10966 10966 10966 10966 10968 10969 10970 10971 10972 10973 10974 10973 10971 10969 10968 10970 10973 10975 10977 10979 10981 10982 10983 10984 10984 10985 10985 10986 10986 10985 10985 10985 10986 10985 10985 10984 10983 10983 10982 10981 10979 10979 10978 10977 10975 10973 10972 10972 10972 10971 10970 10969 10966 10964 10963 10962 10961 10960 10957 10955 10955 10954 10952 10950 10948 10945 10943
10946 10949 10951 10952 10955 10959 10961 10962 10962 10962 10962 10964 10966 10967 10968 10968 10969 10970 10970 10968 10966 10964 10963 10965 10969 10972 10975 10978 10979 10981 10982 10982 10983 10984 10984 10984 10983 10983 10983 10983 10983 10983 10982 10981 10981 10980 10979 10977 10976 10976 10975 10973 10970 10969 10968 10968 10967 10967 10967 10965 10961 10959 10957 10956 10955 10954 10952 10951 10950 10948 10947 10945 10942 10939
10940 10943 10945 10946 10949 10952 10954 10956 10957 10957 10958 10960 10962 10963 10964 10964 10965 10966 10967 10966 10965 10961 10958 10959 10963 10969 10973 10976 10978 10979 10980 10980 10981 10982 10983 10982 10982 10981 10981 10981 10980 10980 10980 10979 10978 10978 10977 10975 10973 10972 10971 10970 10968 10966 10964 10962 10960 10960 10961 10962 10960 10956 10953 10951 10950 10949 10948 10947 10946 10944 10942 10940 10938 10935
10932 10935 10938 10940 10942 10945 10948 10950 10952 10953 10954 10955 10958 10960 10960 10960 10961 10962 10962 10962 10960 10956 10953 10955 10960 10967 10972 10975 10977 10978 10978 10979 10979 10979 10980 10980 10979 10979 10979 10978 10978 10978 10978 10977 10976 10975 10974 10973 10971 10969 10967 10966 10964 10962 10959 10957 10955 10952 10953 10956 10958 10956 10952 10948 10945 10943 10942 10942 10941 10940 10938 10936 10935 10932
10924 10927 10930 10933 10935 10938 10940 10943 10945 10947 10948 10950 10953 10955 10955 10955 10956 10957 10957 10955 10951 10946 10946 10952 10960 10968 10973 10976 10977 10977 10977 10977 10977 10977 10977 10978 10977 10977 10977 10976 10975 10976 10975 10974 10972 10971 10971 10970 10969 10967 10964 10961 10959 10956 10953 10952 10951 10948 10946 10947 10950 10952 10950 10947 10943 10941 10938 10936 10935 10934 10933 10931 10930 10927
10917 10919 10921 10924 10927 10930 10932 10935 10938 10941 10943 10944 10947 10949 10950 10950 10950 10951 10950 10947 10942 10940 10944 10954 10964 10972 10976 10978 10977 10977 10975 10974 10973 10973 10973 10974 10973 10972 10972 10972 10972 10972 10972 10971 10969 10967 10967 10966 10966 10964 10961 10959 10956 10952 10949 10948 10948 10947 10943 10940 10940 10942 10943 10941 10939 10937 10935 10932 10929 10928 10927 10926 10924 10921
10908 10911 10912 10915 10918 10921 10924 10927 10930 10934 10936 10938 10940 10942 10943 10944 10944 10943 10942 10939 10937 10939 10947 10958 10968 10975 10979 10980 10979 10977 10973 10970 10968 10967 10968 10969 10969 10968 10967 10967 10966 10966 10967 10966 10964 10963 10962 10961 10961 10960 10958 10955 10953 10950 10947 10946 10946 10945 10942 10938 10935 10934 10935 10935 10934 10931 10928 10926 10925 10923 10922 10920 10918 10914
10898 10902 10903 10906 10909 10912 10915 10917 10921 10925 10928 10930 10932 10934 10936 10936 10935 10933 10930 10928 10928 10934 10943 10955 10964 10971 10973 10973 10969 10964 10957 10954 10954 10955 10956 10957 10959 10960 10960 10960 10962 10962 10961 10959 10957 10956 10957 10958 10957 10956 10954 10951 10949 10947 10944 10942 10942 10941 10939 10936 10932 10928 10927 10928 10928 10926 10923 10921 10919 10919 10918 10916 10913 10908
10887 10892 10895 10897 10900 10902 10905 10908 10912 10916 10919 10921 10922 10924 10927 10927 10925 10921 10918 10917 10919 10926 10935 10945 10952 10955 10954 10950 10945 10941 10940 10943 10947 10948 10947 10948 10949 10951 10951 10954 10957 10956 10953 10950 10948 10948 10950 10953 10954 10953 10950 10947 10945 10942 10939 10937 10936 10935 10934 10933 10929 10924 10921 10920 10921 10921 10920 10916 10913 10912 10913 10912 10909 10904
10876 10881 10884 10887 10890 10893 10896 10899 10903 10906 10909 10911 10912 10915 10919 10921 10919 10917 10917 10917 10919 10924 10932 10938 10940 10939 10937 10935 10933 10934 10938 10942 10945 10946 10945 10944 10942 10940 10940 10945 10949 10948 10945 10942 10942 10942 10944 10947 10949 10949 10947 10944 10941 10937 10934 10931 10929 10926 10926 10925 10923 10920 10917 10915 10913 10913 10913 10910 10907 10905 10905 10904 10903 10899